Voltar ao catálogo

HERMES-1

AtivoCiênciaSSO
NORAD 63242·PAYLOAD·🇮🇹 Italy

Lançado Mar 15, 2025 de Vandenberg Space Force Base

Loading…

Próximas Passagens (próximas 24 horas)

TLE

AtualizadoSource: Space-Track

Época: Sep 14, 2026, 12:11 UTC

1 63242U 25052AJ  26257.50828808  .00003847  00000-0  17007-3 0  9992
2 63242  97.3755 147.4935 0005788 220.3333 139.7475 15.22279034 83385

Acompanhe HERMES-1 em tempo real com AllMySat

Download on the App Store